Weather History for KPIT - June, 2013

Change the Weather History Date:

Thursday, June 6, 2013

  Actual Average Record
Temperature  
Mean Temperature 67 °F 66 °F  
Max Temperature 70 °F 77 °F 93 °F (1925)
Min Temperature 64 °F 56 °F 42 °F (1945)
Degree Days  
Heating Degree Days 0 2  
Month to date heating degree days 12 16  
Since 1 June heating degree days 12 16  
Since 1 July heating degree days 5562 5688  
Cooling Degree Days 2 3  
Month to date cooling degree days 24 18  
Year to date cooling degree days 128 70  
Since 1 June cooling degree days 24 18  
Growing Degree Days 17 (Base 50)    
Moisture  
Dew Point 63 °F    
Average Humidity 80    
Maximum Humidity 93    
Minimum Humidity 66    
Precipitation  
Precipitation 1.05 in 0.15 in 1.60 in (1986)
Month to date precipitation 1.11 0.87  
Year to date precipitation 13.45 15.97  
Snow  
Snow 0.00 in 0.00 in 0.00 in (2002)
Month to date snowfall 0.0 0.0  
Since 1 July snowfall 57.4 41.4  
Snow Depth 0.00 in    
Sea Level Pressure  
Sea Level Pressure 29.85 in    
Wind  
Wind Speed 5 mph (SSE)    
Max Wind Speed 15 mph    
Max Gust Speed 17 mph    
Visibility 5 miles    
Events Rain    
T = Trace of Precipitation, MM = Missing Value Source: NWS Daily Summary

Daily Weather History Graph

Daily Weather History Graph

Search for Another Location

Airport or City:

Trip Planner

Search our weather history database for the weather conditions in past years. The results will help you decide how hot, cold, wet, or windy it might be!

Date:

Astronomy

Jun. 06, 2013 Rise Set
Actual Time 5:50 AM EDT 8:48 PM EDT
Civil Twilight 5:18 AM EDT 9:21 PM EDT
Nautical Twilight 4:36 AM EDT 10:03 PM EDT
Astronomical Twilight 3:48 AM EDT 10:51 PM EDT
Moon 4:31 AM EDT (6/6) 7:08 PM EDT (6/6)
Length of Visible Light 16h 03m
Length of Day
14h 57m
Waning Crescent, 4% of the Moon is Illuminated
Jun 6
Waning Crescent
Jun 8
New
Jun 16
First Quarter
Jun 23
Full
Jun 30
Last Quarter

Hourly Weather History & Observations

Time (EDT) Temp. Dew Point Humidity Pressure Visibility Wind Dir Wind Speed Gust Speed Precip Events Conditions
12:51 AM 69.1 °F 57.9 °F 68% 29.94 in 10.0 mi SSE 6.9 mph - 0.00 in   Overcast
1:51 AM 69.1 °F 57.9 °F 68% 29.94 in 10.0 mi SSW 6.9 mph - 0.00 in Rain Light Rain
2:51 AM 68.0 °F 59.0 °F 73% 29.94 in 10.0 mi Calm Calm - 0.00 in   Overcast
3:51 AM 68.0 °F 60.1 °F 76% 29.92 in 9.0 mi South 3.5 mph - N/A   Overcast
4:11 AM 66.2 °F 60.8 °F 83% 29.92 in 7.0 mi Calm Calm - N/A   Overcast
4:51 AM 66.0 °F 62.1 °F 87% 29.91 in 6.0 mi SSE 4.6 mph - 0.02 in Rain Light Rain
5:05 AM 66.2 °F 62.6 °F 88% 29.90 in 6.0 mi SE 5.8 mph - 0.01 in Rain Light Rain
5:41 AM 66.2 °F 62.6 °F 88% 29.91 in 4.0 mi SE 5.8 mph - 0.01 in Rain Light Rain
5:51 AM 66.0 °F 63.0 °F 90% 29.90 in 2.0 mi SSE 4.6 mph - 0.02 in Rain Light Rain
6:16 AM 64.4 °F 62.6 °F 94% 29.90 in 2.0 mi ESE 6.9 mph - 0.04 in Rain Light Rain
6:29 AM 64.4 °F 62.6 °F 94% 29.90 in 3.0 mi East 5.8 mph - 0.06 in Rain Light Rain
6:51 AM 64.9 °F 63.0 °F 93% 29.89 in 3.0 mi ESE 6.9 mph - 0.06 in   Overcast
7:51 AM 66.0 °F 62.1 °F 87% 29.88 in 5.0 mi SSE 10.4 mph - 0.00 in   Light Drizzle
8:51 AM 64.9 °F 62.1 °F 90% 29.88 in 5.0 mi SSE 10.4 mph - 0.00 in   Overcast
9:13 AM 64.4 °F 62.6 °F 94% 29.87 in 5.0 mi SSE 5.8 mph - 0.00 in   Overcast
9:51 AM 66.0 °F 62.1 °F 87% 29.87 in 5.0 mi South 6.9 mph - 0.00 in Rain Light Rain
10:51 AM 64.9 °F 62.1 °F 90% 29.87 in 5.0 mi South 8.1 mph - 0.01 in   Overcast
11:18 AM 64.4 °F 62.6 °F 94% 29.86 in 2.5 mi SSE 9.2 mph - 0.00 in Rain Light Rain
11:43 AM 64.4 °F 62.6 °F 94% 29.86 in 1.5 mi SSE 8.1 mph - 0.07 in Rain Rain
11:51 AM 64.9 °F 63.0 °F 93% 29.87 in 1.5 mi South 8.1 mph - 0.12 in Rain Rain
12:51 PM 66.0 °F 64.0 °F 93% 29.85 in 5.0 mi SSE 9.2 mph - 0.14 in Rain Light Rain
1:51 PM 66.9 °F 64.0 °F 90% 29.83 in 7.0 mi SSE 8.1 mph - 0.00 in   Overcast
2:20 PM 66.2 °F 62.6 °F 88% 29.83 in 6.0 mi SSE 8.1 mph - N/A   Overcast
2:51 PM 66.9 °F 64.0 °F 90% 29.82 in 5.0 mi SSE 5.8 mph - N/A   Overcast
3:21 PM 68.0 °F 64.4 °F 88% 29.81 in 5.0 mi SSE 8.1 mph - N/A   Overcast
3:51 PM 69.1 °F 64.0 °F 84% 29.81 in 6.0 mi SE 5.8 mph - 0.00 in   Haze
4:49 PM 69.8 °F 64.4 °F 83% 29.81 in 2.5 mi SSE 4.6 mph - 0.02 in Rain Light Rain
4:51 PM 69.1 °F 64.9 °F 87% 29.81 in 2.5 mi SSE 4.6 mph - 0.02 in Rain Light Rain
5:15 PM 68.0 °F 66.2 °F 94% 29.80 in 1.5 mi Calm Calm - 0.20 in Rain Rain
5:48 PM 68.0 °F 66.2 °F 94% 29.80 in 1.5 mi SSE 4.6 mph - 0.37 in Rain Rain
5:51 PM 68.0 °F 66.0 °F 93% 29.80 in 1.5 mi SE 3.5 mph - 0.38 in Rain Rain
6:51 PM 66.9 °F 64.9 °F 93% 29.79 in 1.5 mi ESE 6.9 mph - 0.20 in Rain Light Rain
7:01 PM 66.2 °F 64.4 °F 94% 29.79 in 4.0 mi SSE 6.9 mph - 0.03 in Rain Light Rain
7:45 PM 66.2 °F 64.4 °F 94% 29.80 in 9.0 mi SSE 8.1 mph - 0.04 in Rain Light Rain
7:51 PM 66.0 °F 63.0 °F 90% 29.81 in 8.0 mi South 6.9 mph - 0.04 in Rain Light Rain
8:43 PM 64.4 °F 62.6 °F 94% 29.80 in 10.0 mi SE 5.8 mph - 0.00 in   Overcast
8:51 PM 64.9 °F 62.1 °F 90% 29.81 in 10.0 mi SSE 3.5 mph - 0.00 in   Overcast
9:51 PM 64.0 °F 62.1 °F 93% 29.81 in 10.0 mi SE 3.5 mph - N/A   Overcast
10:51 PM 64.0 °F 62.1 °F 93% 29.82 in 8.0 mi Calm Calm - N/A   Overcast
11:51 PM 64.0 °F 62.1 °F 93% 29.82 in 3.0 mi Calm Calm - 0.02 in Rain Light Rain